Cleveland, OH

8:41 PM EST on January 23, 2017 (GMT -0500)
Burke Lakefront

Weather History for KBKL - March, 2014

Change the Weather History Date:

Saturday, March 29, 2014

  Actual Average Record
Temperature  
Mean Temperature 34 °F -  
Max Temperature 39 °F 48 °F 72 °F (1998)
Min Temperature 32 °F 35 °F 23 °F (2015)
Degree Days  
Heating Degree Days 30    
Moisture  
Dew Point 31 °F    
Average Humidity 91    
Maximum Humidity 100    
Minimum Humidity 78    
Precipitation  
Precipitation 0.09 in - - ()
Sea Level Pressure  
Sea Level Pressure 30.05 in    
Wind  
Wind Speed 11 mph (NNE)    
Max Wind Speed 26 mph    
Max Gust Speed 33 mph    
Visibility 5 miles    
Events Fog , Snow    
Averages and records for this station are not official NWS values.
T = Trace of Precipitation, MM = Missing Value Source: NWS Daily Summary

Daily Weather History Graph

Daily Weather History Graph

Search for Another Location

Airport or City:

Trip Planner

Search our weather history database for the weather conditions in past years. The results will help you decide how hot, cold, wet, or windy it might be!

Date:

Astronomy

Mar. 29, 2014 Rise Set
Actual Time 7:14 AM EDT 7:48 PM EDT
Civil Twilight 6:46 AM EDT 8:16 PM EDT
Nautical Twilight 6:14 AM EDT 8:49 PM EDT
Astronomical Twilight 5:40 AM EDT 9:23 PM EDT
Moon 6:23 AM EDT (3/29) 6:51 PM EDT (3/29)
Length of Visible Light 13h 29m
Length of Day
12h 33m
Waning Crescent, 2% of the Moon is Illuminated
Mar 29
Waning Crescent
Mar 30
New
Apr 7
First Quarter
Apr 15
Full
Apr 22
Last Quarter

Hourly Weather History & Observations

Time (EDT) Temp. Windchill Dew Point Humidity Pressure Visibility Wind Dir Wind Speed Gust Speed Precip Events Conditions
12:19 AM 35.6 °F - 33.8 °F 93% 30.17 in 10.0 mi Calm Calm - N/A   Mostly Cloudy
12:29 AM 35.6 °F - 33.8 °F 93% 30.18 in 10.0 mi Calm Calm - N/A   Scattered Clouds
12:53 AM 37.0 °F 34.5 °F 33.1 °F 86% 30.19 in 10.0 mi ESE 3.5 mph - N/A   Clear
1:11 AM 37.4 °F 33.8 °F 33.8 °F 87% 30.17 in 10.0 mi SE 4.6 mph - N/A   Mostly Cloudy
1:53 AM 37.9 °F 33.5 °F 34.0 °F 86% 30.18 in 10.0 mi ESE 5.8 mph - N/A   Overcast
2:53 AM 35.1 °F 28.6 °F 32.0 °F 89% 30.18 in 9.0 mi NE 8.1 mph - N/A   Overcast
3:53 AM 37.0 °F 32.4 °F 33.1 °F 86% 30.15 in 10.0 mi ENE 5.8 mph - N/A   Overcast
4:53 AM 36.0 °F 30.3 °F 30.9 °F 82% 30.14 in 10.0 mi NE 6.9 mph - N/A   Overcast
5:53 AM 34.0 °F 26.6 °F 30.9 °F 89% 30.14 in 10.0 mi NNE 9.2 mph - N/A   Overcast
6:53 AM 33.1 °F 26.1 °F 30.9 °F 92% 30.14 in 10.0 mi NE 8.1 mph - N/A   Mostly Cloudy
7:02 AM 33.8 °F 28.6 °F 30.2 °F 87% 30.12 in 10.0 mi NE 5.8 mph - N/A   Scattered Clouds
7:53 AM 35.1 °F 27.9 °F 28.9 °F 78% 30.13 in 10.0 mi ENE 9.2 mph - N/A   Mostly Cloudy
8:53 AM 35.1 °F 27.9 °F 28.9 °F 78% 30.12 in 10.0 mi East 9.2 mph - N/A   Overcast
9:53 AM 36.0 °F 29.6 °F 30.0 °F 79% 30.11 in 10.0 mi NE 8.1 mph - N/A   Overcast
10:53 AM 34.0 °F 26.0 °F 32.0 °F 92% 30.10 in 10.0 mi NNE 10.4 mph - N/A   Overcast
11:20 AM 33.8 °F 24.3 °F 32.0 °F 93% 30.07 in 10.0 mi North 13.8 mph - N/A   Overcast
11:53 AM 34.0 °F 24.6 °F 32.0 °F 92% 30.06 in 7.0 mi NNE 13.8 mph 21.9 mph N/A   Overcast
12:37 PM 33.8 °F 22.8 °F 30.2 °F 87% 30.03 in 7.0 mi NNE 18.4 mph 24.2 mph N/A   Overcast
12:53 PM 34.0 °F 23.4 °F 30.9 °F 89% 30.04 in 8.0 mi NNE 17.3 mph - N/A   Overcast
1:53 PM 34.0 °F 22.4 °F 30.9 °F 89% 30.01 in 9.0 mi NNE 20.7 mph 28.8 mph N/A   Overcast
2:42 PM 33.8 °F 22.5 °F 30.2 °F 87% 29.99 in 2.5 mi North 19.6 mph 26.5 mph 0.00 in Snow Light Snow
2:53 PM 33.1 °F 21.5 °F 30.9 °F 92% 30.01 in 2.5 mi North 19.6 mph 26.5 mph 0.01 in Snow Light Snow
3:02 PM 33.8 °F 22.5 °F 30.2 °F 87% 29.98 in 3.0 mi North 19.6 mph - 0.00 in Snow Light Snow
3:09 PM 33.8 °F 21.9 °F 30.2 °F 87% 29.97 in 2.0 mi North 21.9 mph 28.8 mph 0.00 in Snow Light Snow
3:12 PM 33.8 °F 21.9 °F 30.2 °F 87% 29.97 in 1.8 mi North 21.9 mph 28.8 mph 0.00 in Snow Light Snow
3:53 PM 33.1 °F 21.2 °F 30.9 °F 92% 29.98 in 1.0 mi North 20.7 mph 29.9 mph 0.00 in Snow Light Snow
3:55 PM 33.8 °F 21.9 °F 30.2 °F 87% 29.96 in 0.8 mi North 21.9 mph 29.9 mph 0.00 in Snow Light Snow
4:09 PM 32.0 °F 19.8 °F 30.2 °F 93% 29.96 in 0.5 mi North 20.7 mph 32.2 mph 0.01 in Fog , Snow Snow
4:23 PM 32.0 °F 19.8 °F 30.2 °F 93% 29.96 in 1.0 mi North 20.7 mph 27.6 mph 0.01 in Snow Light Snow
4:32 PM 32.0 °F 19.5 °F 30.2 °F 93% 29.95 in 0.8 mi North 21.9 mph 29.9 mph 0.01 in Snow Light Snow
4:53 PM 32.0 °F 19.5 °F 32.0 °F 100% 29.96 in 0.5 mi North 21.9 mph 28.8 mph 0.02 in Fog , Snow Snow
5:53 PM 32.0 °F 19.8 °F 32.0 °F 100% 29.97 in 0.5 mi North 20.7 mph 28.8 mph 0.01 in Fog , Snow Snow
6:53 PM 32.0 °F 19.2 °F 32.0 °F 100% 29.97 in 0.5 mi North 23.0 mph 33.4 mph 0.03 in Fog , Snow Snow
7:53 PM 32.0 °F 18.9 °F 32.0 °F 100% 30.00 in 0.5 mi North 24.2 mph 29.9 mph 0.01 in Fog , Snow Snow
8:46 PM 32.0 °F 18.9 °F 32.0 °F 100% 29.99 in 1.0 mi North 24.2 mph 32.2 mph 0.01 in Snow Light Snow
8:53 PM 32.0 °F 18.4 °F 32.0 °F 100% 30.01 in 1.0 mi North 26.5 mph 32.2 mph 0.01 in Snow Light Snow
9:34 PM 32.0 °F 18.4 °F 32.0 °F 100% 30.01 in 2.0 mi North 26.5 mph 32.2 mph 0.00 in Snow Light Snow
9:53 PM 32.0 °F 19.2 °F 32.0 °F 100% 30.03 in 1.8 mi North 23.0 mph 31.1 mph 0.00 in Snow Light Snow
10:40 PM 32.0 °F 20.1 °F 32.0 °F 100% 30.01 in 1.8 mi North 19.6 mph 25.3 mph 0.00 in Snow Light Snow
10:53 PM 32.0 °F 20.5 °F 32.0 °F 100% 30.03 in 1.5 mi North 18.4 mph 27.6 mph 0.00 in Snow Light Snow
11:53 PM 32.0 °F 20.8 °F 32.0 °F 100% 30.03 in 2.0 mi North 17.3 mph - 0.00 in Snow Light Snow